Location: Estes Park
(40.3770°N, 105.5210°W)
Time: 09:00:02
(UTC-07:00)

Envisat - Pass Details

Date: 14 October 2017
Orbit: 764 x 766 km, 98.2° (Epoch: 14 December)

Event Time Altitude Azimuth Distance (km) Brightness Sun altitude
Exits shadow 21:40:32 25° 302° (WNW) 1,521 5.0 -37.7°
Drops below altitude 10° 21:43:10 10° 327° (NNW) 2,307 6.0 -38.2°
Sets 21:45:43 0° 337° (NNW) 3,238 6.8 -38.6°
